Flag for Canada Weather past 2 weeks in Cape Breton Regional Municipality, Nova Scotia, Canada

63 °F

Light rain. Fog.

Feels Like: 63 °F
Forecast: N/A
Wind: 16 mph from South

Location: Sydney

Current Time: Oct 13, 2015 at 8:12:24 PM

Latest Report: Oct 13, 2015 at 6:00 PM

Visibility: 1 mi

Pressure: 29.67 "Hg

Humidity: 94%

Dew point: 61 °F

Location of Cape Breton Regional MunicipalityLocation

Historic Weather in Cape Breton Regional Municipality — Graph


Cape Breton Regional Municipality temperature yesterday

Maximum temperature yesterday: 63 °F (at 2:00 PM)
Minimum temperature yesterday: 52 °F (at 5:00 AM)
Average temperature yesterday: 55 °F

Past Weeks' High & Low Weather Summary

High79 °F (Sep 29, 3:00 PM)100% (Oct 1, 9:00 AM)30.42 "Hg (Oct 1, 9:00 AM)
Low34 °F (Oct 10, 10:00 PM)46% (Sep 28, 6:00 PM)29.43 "Hg (Oct 10, 8:00 AM)
Average54 °F84%30.03 "Hg
* Reported Sep 28 6:00 PM — Oct 13 6:00 PM, Cape Breton Regional Municipality, Weather by CustomWeather, © 2015

Note: Actual official high and low records may vary slightly from our data, if they occured in-between our weather recording intervals... More about our weather records


Cape Breton Regional Municipality weather history for previous 24 hours

Time TempWeatherWind HumidityBarometerVisibility
6:00 PM
Tue, Oct 13
63 °FLight rain. Fog.16 mph94%29.67 "Hg1 mi
5:00 PM61 °FLight rain. Fog.18 mph100%29.72 "Hg2 mi
4:55 PM61 °FLight rain. Fog.16 mph94%29.72 "Hg2 mi
4:00 PM61 °FLight rain. Fog.15 mph94%29.76 "Hg1 mi
3:00 PM61 °FFog.15 mph94%29.80 "Hg6 mi
2:53 PM61 °FFog.15 mph94%29.80 "Hg6 mi
2:00 PM63 °FLow clouds.14 mph88%29.84 "Hg10 mi
1:00 PM66 °FPartly sunny.15 mph78%29.86 "Hg15 mi
12:00 PM64 °FBroken clouds.16 mph83%29.89 "Hg15 mi
11:00 AM66 °FBroken clouds.14 mph78%29.91 "Hg15 mi
10:51 AM64 °FPartly sunny.14 mph83%29.91 "Hg10 mi
10:00 AM61 °FPartly sunny.8 mph94%29.92 "Hg10 mi
9:52 AM61 °FBroken clouds.6 mph94%29.93 "Hg10 mi
9:00 AM57 °FFog.9 mph100%29.93 "Hg4 mi
8:00 AM55 °FFog.7 mph100%29.93 "Hg4 mi
7:00 AM55 °FFog.7 mph100%29.93 "Hg1 mi
6:00 AM55 °FPassing clouds.7 mph100%29.94 "Hg10 mi
5:04 AM52 °FPassing clouds.8 mph100%29.93 "Hg15 mi
4:00 AM52 °FPassing clouds.6 mph100%29.93 "Hg15 mi
3:00 AM54 °FPassing clouds.7 mph100%29.94 "Hg15 mi
2:00 AM55 °FPassing clouds.9 mph94%29.95 "Hg7 mi
1:00 AM55 °FFog.12 mph94%29.95 "Hg4 mi
12:00 AM54 °FFog.9 mph100%29.94 "Hg2 mi
11:00 PM
Mon, Oct 12
54 °FFog.9 mph100%29.93 "Hg1 mi
10:50 PM54 °FFog.8 mph100%29.93 "Hg1 mi
10:04 PM54 °FFog.9 mph100%29.92 "Hg2 mi
9:52 PM54 °FPassing clouds.8 mph100%29.92 "Hg7 mi
9:00 PM54 °FPassing clouds.8 mph100%29.91 "Hg15 mi
8:00 PM54 °FPassing clouds.8 mph94%29.90 "Hg15 mi
Weather by CustomWeather, © 2015

See weather overviewHow to use our weather pages